GW6759 Weather Reports


time (UTC)temp
C
wind
direction
speed
KPH
gust
KPH
rain 1hr
cm
rain 24hr
cm
rain mn
cm
humidity
%
barometer
mb
20260906123133 23 102 0.0 0.0 0.00 0.00 0.00 88 1014.0
20260906122632 23 116 0.0 0.0 0.00 0.00 0.00 89 1014.1
20260906122127 23 31 3.2 4.8 0.00 0.00 0.00 89 1014.1
20260906121623 23 113 0.0 1.6 0.00 0.00 0.00 88 1014.1
20260906121120 23 140 3.2 3.2 0.00 0.00 0.00 88 1014.3
20260906120615 23 108 0.0 0.0 0.00 0.00 0.00 89 1014.0
20260906120113 23 153 0.0 0.0 0.00 0.00 0.00 91 1013.8
20260906115612 23 92 0.0 0.0 0.00 0.00 0.00 92 1013.9
20260906115108 22 60 0.0 0.0 0.00 0.00 0.00 92 1013.9
20260906114607 22 46 0.0 1.6 0.00 0.00 0.00 93 1013.7
20260906114103 22 85 0.0 0.0 0.00 0.00 0.00 93 1013.7
20260906113602 22 123 0.0 0.0 0.00 0.00 0.00 93 1013.7
20260906113057 22 70 0.0 0.0 0.00 0.00 0.00 93 1013.7
20260906112557 22 22 0.0 0.0 0.00 0.00 0.00 94 1013.6
20260906112054 22 71 1.6 1.6 0.00 0.00 0.00 94 1013.4
20260906111553 22 132 0.0 0.0 0.00 0.00 0.00 95 1013.6
20260906111049 22 5 0.0 0.0 0.00 0.00 0.00 95 1013.3
20260906110548 22 46 1.6 3.2 0.00 0.00 0.00 95 1013.2
20260906110048 22 11 1.6 3.2 0.00 0.00 0.00 95 1013.3
20260906105543 22 89 0.0 0.0 0.00 0.00 0.00 95 1013.3
20260906105039 22 54 0.0 1.6 0.00 0.00 0.00 94 1013.3
20260906104537 22 9 4.8 4.8 0.00 0.00 0.00 94 1013.1
20260906104038 22 59 0.0 0.0 0.00 0.00 0.00 94 1013.1
20260906103536 22 30 0.0 0.0 0.00 0.00 0.00 94 1013.0
20260906103032 22 9 1.6 3.2 0.00 0.00 0.00 94 1013.0
20260906102531 22 85 0.0 1.6 0.00 0.00 0.00 94 1013.1
20260906102027 22 85 0.0 0.0 0.00 0.00 0.00 94 1013.1
20260906101527 22 62 0.0 0.0 0.00 0.00 0.00 94 1012.8
20260906101022 22 144 0.0 0.0 0.00 0.00 0.00 94 1012.9
20260906100517 22 206 0.0 1.6 0.00 0.00 0.00 94 1012.8
20260906100012 22 134 1.6 1.6 0.00 0.00 0.00 94 1012.7
20260906095507 22 140 0.0 1.6 0.00 0.00 0.00 94 1012.5
20260906095002 22 145 1.6 1.6 0.00 0.00 0.00 94 1012.6
20260906094501 22 149 0.0 0.0 0.00 0.00 0.00 94 1012.4
20260906093957 22 77 0.0 0.0 0.00 0.00 0.00 94 1012.3
20260906093454 22 43 3.2 4.8 0.00 0.00 0.00 94 1012.2
20260906092954 22 41 3.2 3.2 0.00 0.00 0.00 94 1012.3
20260906092453 22 126 0.0 0.0 0.00 0.00 0.00 95 1012.0
20260906091948 22 77 0.0 0.0 0.00 0.00 0.00 95 1012.2
20260906091444 22 10 0.0 1.6 0.00 0.00 0.00 95 1012.1
20260906090941 22 16 0.0 1.6 0.00 0.00 0.00 96 1012.2
20260906090436 22 62 0.0 0.0 0.00 0.00 0.00 96 1012.1
20260906085930 22 50 0.0 0.0 0.00 0.00 0.00 96 1012.0
20260906085429 22 132 0.0 0.0 0.00 0.00 0.00 96 1012.0
20260906084928 22 136 0.0 0.0 0.00 0.00 0.00 96 1011.8
20260906084423 22 31 3.2 3.2 0.00 0.00 0.00 96 1011.9
20260906083922 22 3 3.2 4.8 0.00 0.00 0.00 96 1011.9
20260906083418 22 6 3.2 3.2 0.00 0.00 0.00 96 1011.9
20260906082917 22 24 1.6 3.2 0.00 0.00 0.00 96 1012.1
20260906082413 22 269 0.0 0.0 0.00 0.00 0.00 96 1011.8
20260906081909 22 11 0.0 0.0 0.00 0.00 0.00 97 1011.9
20260906081404 22 33 0.0 1.6 0.00 0.00 0.00 97 1011.8
20260906080900 22 79 0.0 0.0 0.00 0.00 0.00 97 1011.9
20260906080356 22 53 0.0 0.0 0.00 0.00 0.00 97 1011.8
20260906075855 22 27 0.0 0.0 0.00 0.00 0.00 97 1011.8
20260906075350 21 66 0.0 0.0 0.00 0.00 0.00 97 1011.6
20260906074846 21 175 0.0 0.0 0.00 0.00 0.00 97 1011.5
20260906074345 21 175 0.0 0.0 0.00 0.00 0.00 97 1011.4
20260906073844 21 176 0.0 0.0 0.00 0.00 0.00 97 1011.4
20260906073339 21 176 0.0 0.0 0.00 0.00 0.00 97 1011.2
20260906072836 21 176 0.0 0.0 0.00 0.00 0.00 97 1011.3
20260906072332 21 175 0.0 0.0 0.00 0.00 0.00 97 1011.3
20260906071827 21 175 0.0 0.0 0.00 0.00 0.00 97 1011.2
20260906071328 21 175 0.0 0.0 0.00 0.00 0.00 97 1011.5
20260906070824 21 175 0.0 0.0 0.00 0.00 0.00 97 1011.5
20260906070320 21 176 0.0 0.0 0.00 0.00 0.00 97 1011.5
20260906065820 22 176 0.0 0.0 0.00 0.00 0.00 97 1011.6
20260906065315 22 175 0.0 0.0 0.00 0.00 0.00 97 1011.5
20260906064810 22 175 0.0 0.0 0.00 0.00 0.00 97 1011.6
20260906064307 22 175 0.0 0.0 0.00 0.00 0.00 97 1011.5
20260906063801 22 175 0.0 0.0 0.00 0.00 0.00 97 1011.5
20260906063256 22 175 0.0 0.0 0.00 0.00 0.00 97 1011.7
20260906062751 22 175 0.0 0.0 0.00 0.00 0.00 97 1011.8
20260906062250 22 175 0.0 0.0 0.00 0.00 0.00 96 1011.7
20260906061746 22 175 0.0 0.0 0.00 0.00 0.00 96 1011.6
20260906061243 22 175 0.0 0.0 0.00 0.00 0.00 96 1011.6
20260906060737 22 175 0.0 0.0 0.00 0.00 0.00 96 1011.6
20260906060235 22 175 0.0 0.0 0.00 0.00 0.00 96 1011.8
20260906055730 22 175 0.0 0.0 0.00 0.00 0.00 96 1012.0
20260906055225 22 175 0.0 0.0 0.00 0.00 0.00 96 1011.9
20260906054721 22 175 0.0 0.0 0.00 0.00 0.00 96 1012.0
20260906054216 22 176 0.0 0.0 0.00 0.00 0.00 96 1012.4
20260906053713 22 177 0.0 0.0 0.00 0.00 0.00 96 1012.3
20260906053208 22 177 0.0 0.0 0.00 0.00 0.00 95 1012.2
20260906052703 22 177 0.0 0.0 0.00 0.00 0.00 95 1012.1
20260906052159 22 177 0.0 0.0 0.00 0.00 0.00 95 1012.2
20260906051656 22 177 0.0 0.0 0.00 0.00 0.00 95 1012.3
20260906051155 22 177 0.0 0.0 0.00 0.00 0.00 94 1012.3
20260906050651 22 177 0.0 0.0 0.00 0.00 0.00 94 1012.5
20260906050145 23 177 0.0 0.0 0.00 0.00 0.00 94 1012.4
20260906045644 23 177 0.0 0.0 0.00 0.00 0.00 94 1012.3
20260906045139 23 182 0.0 0.0 0.00 0.00 0.00 94 1012.5
20260906044635 23 253 0.0 0.0 0.00 0.00 0.00 93 1012.5
20260906044130 23 253 0.0 0.0 0.00 0.00 0.00 93 1012.6
20260906043627 23 253 0.0 0.0 0.00 0.00 0.00 93 1012.6
20260906043122 23 253 0.0 0.0 0.00 0.00 0.00 93 1012.5
20260906042621 23 253 0.0 0.0 0.00 0.00 0.00 93 1012.6
20260906042115 23 253 0.0 0.0 0.00 0.00 0.00 93 1012.5
20260906041612 23 253 0.0 0.0 0.00 0.00 0.00 92 1012.5
20260906041112 23 253 0.0 0.0 0.00 0.00 0.00 93 1012.7
20260906040607 23 253 0.0 0.0 0.00 0.00 0.00 93 1012.7
20260906035558 23 253 0.0 0.0 0.00 0.05 0.05 92 1012.6
20260906035054 23 61 0.0 0.0 0.00 0.05 0.05 91 1012.6
20260906034554 24 61 0.0 0.0 0.00 0.05 0.05 90 1012.8
20260906034048 24 95 0.0 0.0 0.00 0.05 0.05 89 1012.6
20260906033544 24 96 0.0 0.0 0.00 0.05 0.05 90 1012.7
20260906033039 24 180 0.0 0.0 0.00 0.05 0.05 90 1012.8
20260906032536 23 21 0.0 0.0 0.00 0.05 0.05 90 1012.6
20260906032030 23 30 0.0 0.0 0.00 0.05 0.05 90 1012.4
20260906031526 23 52 0.0 1.6 0.00 0.05 0.05 90 1012.5
20260906031021 23 213 1.6 1.6 0.00 0.05 0.05 90 1012.6
20260906030520 23 98 0.0 0.0 0.00 0.05 0.05 90 1012.5
20260906030020 23 23 1.6 1.6 0.00 0.05 0.05 90 1012.5
20260906025520 23 152 0.0 1.6 0.00 0.05 0.05 90 1012.5
20260906025018 23 123 0.0 1.6 0.00 0.05 0.05 90 1012.7
20260906024514 23 145 0.0 1.6 0.00 0.05 0.05 90 1012.5
20260906024014 23 34 3.2 3.2 0.00 0.05 0.05 90 1012.5
20260906023510 23 243 3.2 3.2 0.00 0.05 0.05 90 1012.7
20260906023004 23 1 1.6 1.6 0.00 0.05 0.05 90 1012.5
20260906022500 23 139 0.0 0.0 0.00 0.05 0.05 91 1012.4
20260906021955 23 73 0.0 0.0 0.00 0.05 0.05 91 1012.7
20260906021450 23 42 1.6 1.6 0.00 0.05 0.05 92 1012.5
20260906020944 23 39 0.0 0.0 0.00 0.05 0.05 93 1012.5
20260906020439 23 42 0.0 0.0 0.00 0.05 0.05 94 1012.5
20260906015933 23 43 0.0 0.0 0.00 0.05 0.05 94 1012.4
20260906015432 23 43 0.0 0.0 0.00 0.05 0.05 95 1012.4
20260906014932 23 43 0.0 0.0 0.00 0.05 0.05 95 1012.5
20260906014432 23 43 0.0 0.0 0.00 0.05 0.05 94 1012.6
20260906013928 23 43 0.0 0.0 0.00 0.05 0.05 94 1012.5
20260906013423 23 43 0.0 0.0 0.00 0.05 0.05 94 1012.4
20260906012919 23 43 0.0 0.0 0.00 0.05 0.05 94 1012.3
20260906012419 23 43 0.0 0.0 0.00 0.05 0.05 94 1012.1
20260906011918 23 43 0.0 0.0 0.00 0.05 0.05 94 1012.2
20260906011414 23 43 0.0 0.0 0.00 0.05 0.05 94 1012.3
20260906010909 23 43 0.0 0.0 0.00 0.05 0.05 94 1012.1
20260906010405 23 43 0.0 0.0 0.00 0.05 0.05 94 1012.2
20260906005900 23 43 0.0 0.0 0.00 0.05 0.05 93 1012.0
20260906005400 23 43 0.0 0.0 0.00 0.05 0.05 93 1012.1
20260906004858 23 43 0.0 0.0 0.00 0.05 0.05 93 1012.0
20260906004353 23 43 0.0 0.0 0.00 0.05 0.05 93 1011.8
20260906003848 23 43 0.0 0.0 0.00 0.05 0.05 93 1012.2
20260906003344 24 43 0.0 0.0 0.00 0.05 0.05 92 1012.1
20260906002839 24 43 0.0 0.0 0.00 0.05 0.05 92 1012.0
20260906002338 24 43 0.0 0.0 0.00 0.05 0.05 92 1012.0
20260906001834 24 43 0.0 0.0 0.00 0.05 0.05 92 1012.0
20260906001329 24 43 0.0 0.0 0.00 0.05 0.05 91 1011.9
20260906000824 24 43 0.0 0.0 0.00 0.05 0.05 91 1011.9
20260906000319 24 43 0.0 0.0 0.00 0.05 0.05 90 1011.7
20260905235819 25 43 0.0 0.0 0.00 0.05 0.05 90 1011.5
20260905235314 25 43 0.0 0.0 0.00 0.05 0.05 89 1011.5
20260905234809 25 43 0.0 0.0 0.00 0.05 0.05 89 1011.4
20260905234304 25 43 0.0 0.0 0.00 0.05 0.05 87 1011.3
20260905233800 25 59 1.6 1.6 0.00 0.05 0.05 88 1011.5
20260905233300 25 105 0.0 0.0 0.00 0.05 0.05 90 1011.4
20260905232759 25 105 0.0 0.0 0.00 0.05 0.05 90 1011.1
20260905232255 25 105 0.0 0.0 0.00 0.05 0.05 90 1011.1
20260905231751 25 105 0.0 0.0 0.00 0.05 0.05 89 1011.3
20260905231246 25 106 0.0 0.0 0.00 0.05 0.05 89 1011.0
20260905230742 25 38 0.0 0.0 0.00 0.05 0.05 87 1010.6
20260905230240 25 38 0.0 0.0 0.00 0.05 0.05 88 1010.6
20260905225739 25 35 0.0 0.0 0.00 0.05 0.05 89 1010.6
20260905225235 25 35 0.0 0.0 0.00 0.05 0.05 90 1010.6
20260905224733 25 35 0.0 0.0 0.00 0.05 0.05 91 1010.4
20260905224229 25 35 0.0 0.0 0.00 0.05 0.05 91 1010.4
20260905223726 25 35 0.0 0.0 0.00 0.05 0.05 89 1010.3
20260905223222 25 257 0.0 0.0 0.00 0.05 0.05 90 1010.3
20260905222718 25 259 0.0 0.0 0.00 0.05 0.05 90 1010.6
20260905222216 25 259 0.0 0.0 0.00 0.05 0.05 91 1010.7
20260905221713 25 259 0.0 0.0 0.00 0.05 0.05 90 1010.9
20260905221209 25 259 0.0 0.0 0.00 0.05 0.05 91 1011.1
20260905220705 25 259 0.0 0.0 0.00 0.05 0.05 92 1011.4
20260905220201 25 259 0.0 0.0 0.00 0.05 0.05 92 1011.2
20260905215700 25 259 0.0 0.0 0.00 0.05 0.05 92 1011.2
20260905215156 24 261 0.0 0.0 0.00 0.05 0.05 92 1010.9
20260905214652 24 136 0.0 0.0 0.00 0.05 0.05 92 1011.1
20260905214147 25 149 0.0 0.0 0.00 0.05 0.05 92 1010.8
20260905213642 24 92 0.0 0.0 0.00 0.05 0.05 92 1010.6
20260905213137 24 99 0.0 0.0 0.00 0.05 0.05 92 1010.6
20260905212633 25 99 0.0 0.0 0.00 0.05 0.05 92 1010.4
20260905212132 25 99 0.0 0.0 0.00 0.05 0.05 91 1010.6
20260905211626 25 99 0.0 0.0 0.00 0.05 0.05 91 1010.5
20260905211122 25 99 0.0 0.0 0.00 0.05 0.05 91 1010.5
20260905210619 25 99 0.0 0.0 0.00 0.05 0.05 90 1010.4
20260905210113 25 99 0.0 0.0 0.00 0.05 0.05 89 1010.5
20260905205612 25 100 0.0 0.0 0.00 0.05 0.05 89 1010.5
20260905205112 25 178 0.0 0.0 0.00 0.05 0.05 87 1010.4
20260905204606 24 185 0.0 1.6 0.00 0.05 0.05 87 1010.3
20260905204102 24 117 0.0 1.6 0.00 0.05 0.05 89 1010.6
20260905203601 24 98 0.0 1.6 0.00 0.05 0.05 90 1010.5
20260905203057 24 8 0.0 0.0 0.00 0.05 0.05 90 1010.5
20260905202552 24 98 0.0 0.0 0.00 0.05 0.05 90 1010.4
20260905202048 24 178 0.0 0.0 0.18 0.05 0.05 88 1010.5
20260905201543 25 22 1.6 1.6 0.36 0.05 0.05 88 1010.6
20260905201043 26 150 0.0 1.6 0.18 0.03 0.03 82 1010.8
20260905200538 26 46 1.6 1.6 0.00 0.00 0.00 78 1010.9
20260905200038 26 93 0.0 1.6 0.00 0.00 0.00 73 1011.4
20260905195532 27 112 1.6 3.2 0.00 0.00 0.00 72 1011.4
20260905195028 27 351 8.0 12.9 0.00 0.00 0.00 73 1011.5
20260905194527 27 51 0.0 1.6 0.00 0.00 0.00 73 1011.5
20260905194027 26 10 9.7 12.9 0.00 0.00 0.00 73 1011.4
20260905193522 27 27 4.8 9.7 0.00 0.00 0.00 73 1011.5
20260905193017 27 33 9.7 12.9 0.00 0.00 0.00 72 1011.8
20260905192512 28 49 14.5 22.5 0.00 0.00 0.00 68 1011.3
20260905192009 33 40 16.1 17.7 0.00 0.00 0.00 59 1011.3
20260905191507 35 52 0.0 0.0 0.00 0.00 0.00 43 1010.4
20260905191007 36 129 0.0 0.0 0.00 0.00 0.00 45 1010.1
20260905190504 36 34 0.0 0.0 0.00 0.00 0.00 45 1010.2
20260905190003 36 292 0.0 1.6 0.00 0.00 0.00 45 1010.0
20260905185458 36 31 0.0 0.0 0.00 0.00 0.00 44 1010.0
20260905184957 36 285 0.0 0.0 0.00 0.00 0.00 42 1009.7
20260905184452 37 132 1.6 1.6 0.00 0.00 0.00 41 1010.1
20260905183951 37 224 3.2 3.2 0.00 0.00 0.00 41 1009.9
20260905183450 36 62 0.0 0.0 0.00 0.00 0.00 44 1010.0
20260905182945 36 341 1.6 1.6 0.00 0.00 0.00 45 1010.1
20260905182445 36 195 1.6 1.6 0.00 0.00 0.00 42 1010.2
20260905181940 36 21 1.6 3.2 0.00 0.00 0.00 43 1010.3
20260905181441 37 124 1.6 1.6 0.00 0.00 0.00 42 1010.3
20260905180940 37 86 0.0 0.0 0.00 0.00 0.00 41 1010.5
20260905180434 38 27 0.0 0.0 0.00 0.00 0.00 42 1010.5
20260905175930 38 249 0.0 0.0 0.00 0.00 0.00 41 1010.9
20260905175424 38 208 0.0 0.0 0.00 0.00 0.00 43 1011.0
20260905174919 37 142 0.0 0.0 0.00 0.00 0.00 44 1011.2
20260905174415 36 74 0.0 1.6 0.00 0.00 0.00 45 1011.2
20260905173910 37 1 9.7 14.5 0.00 0.00 0.00 43 1011.5
20260905173407 37 39 1.6 1.6 0.00 0.00 0.00 44 1011.6
20260905172906 37 199 0.0 0.0 0.00 0.00 0.00 42 1011.7
20260905172404 38 261 3.2 4.8 0.00 0.00 0.00 41 1011.7
20260905171900 37 350 0.0 0.0 0.00 0.00 0.00 42 1011.9
20260905171357 37 351 3.2 4.8 0.00 0.00 0.00 41 1011.9
20260905170853 37 105 1.6 1.6 0.00 0.00 0.00 44 1012.0
20260905170349 37 284 1.6 1.6 0.00 0.00 0.00 44 1012.0
20260905165848 36 338 1.6 1.6 0.00 0.00 0.00 46 1012.2
20260905165344 36 177 3.2 3.2 0.00 0.00 0.00 47 1012.2
20260905164844 37 55 0.0 1.6 0.00 0.00 0.00 45 1012.3
20260905164338 37 194 1.6 1.6 0.00 0.00 0.00 44 1012.3
20260905163835 36 275 0.0 1.6 0.00 0.00 0.00 46 1012.4
20260905163331 36 347 1.6 1.6 0.00 0.00 0.00 47 1012.2
20260905162827 37 130 0.0 0.0 0.00 0.00 0.00 44 1012.5
20260905162326 35 61 1.6 3.2 0.00 0.00 0.00 47 1012.7
20260905161821 36 355 1.6 3.2 0.00 0.00 0.00 47 1012.4
20260905161320 36 177 0.0 0.0 0.00 0.00 0.00 49 1012.8
20260905160818 37 160 0.0 0.0 0.00 0.00 0.00 47 1013.0
20260905160313 36 65 0.0 0.0 0.00 0.00 0.00 47 1013.0
20260905155808 36 89 1.6 1.6 0.00 0.00 0.00 48 1012.9
20260905155307 36 245 1.6 1.6 0.00 0.00 0.00 47 1013.1
20260905154807 36 162 0.0 1.6 0.00 0.00 0.00 49 1013.2
20260905154302 36 31 0.0 1.6 0.00 0.00 0.00 49 1013.2
20260905153757 37 85 0.0 0.0 0.00 0.00 0.00 47 1013.2
20260905153253 37 128 0.0 0.0 0.00 0.00 0.00 49 1013.1
20260905152749 36 177 0.0 0.0 0.00 0.00 0.00 49 1013.3
20260905152248 36 303 3.2 4.8 0.00 0.00 0.00 49 1013.4
20260905151748 36 126 0.0 1.6 0.00 0.00 0.00 49 1013.5
20260905151244 35 128 0.0 1.6 0.00 0.00 0.00 51 1013.5
20260905150743 35 145 0.0 0.0 0.00 0.00 0.00 53 1013.3
20260905150243 35 176 0.0 0.0 0.00 0.00 0.00 52 1013.3
20260905145740 35 138 0.0 0.0 0.00 0.00 0.00 55 1013.3
20260905145236 35 116 0.0 0.0 0.00 0.00 0.00 53 1013.4
20260905144734 35 88 0.0 0.0 0.00 0.00 0.00 54 1013.5
20260905144230 34 118 0.0 1.6 0.00 0.00 0.00 54 1013.4
20260905143729 34 99 0.0 0.0 0.00 0.00 0.00 58 1013.5
20260905143229 33 19 1.6 1.6 0.00 0.00 0.00 56 1013.5
20260905142727 34 136 0.0 0.0 0.00 0.00 0.00 57 1013.5
20260905142222 34 131 0.0 0.0 0.00 0.00 0.00 58 1013.3
20260905141718 33 56 0.0 0.0 0.00 0.00 0.00 60 1013.2
20260905141214 33 128 0.0 0.0 0.00 0.00 0.00 60 1013.4
20260905140709 33 117 0.0 0.0 0.00 0.00 0.00 60 1013.3
20260905140209 32 94 1.6 1.6 0.00 0.00 0.00 63 1013.2
20260905135703 32 87 0.0 0.0 0.00 0.00 0.00 62 1013.1
20260905135200 32 126 0.0 0.0 0.00 0.00 0.00 63 1013.2
20260905134658 32 85 0.0 0.0 0.00 0.00 0.00 63 1013.4
20260905134158 32 129 0.0 0.0 0.00 0.00 0.00 67 1013.3
20260905133653 32 272 0.0 0.0 0.00 0.00 0.00 66 1013.1
20260905133154 32 110 0.0 0.0 0.00 0.00 0.00 69 1013.3
20260905132653 31 120 0.0 0.0 0.00 0.00 0.00 67 1013.4
20260905132148 31 118 0.0 0.0 0.00 0.00 0.00 69 1013.4
20260905131643 31 111 0.0 0.0 0.00 0.00 0.00 70 1013.4
20260905131138 30 107 0.0 0.0 0.00 0.00 0.00 71 1013.3
20260905130632 30 133 0.0 0.0 0.00 0.00 0.00 73 1013.3
20260905130133 30 109 0.0 1.6 0.00 0.00 0.00 73 1013.3
20260905125632 30 105 0.0 0.0 0.00 0.00 0.00 72 1013.5
20260905125128 29 105 0.0 0.0 0.00 0.00 0.00 75 1013.4
20260905124624 30 105 0.0 0.0 0.00 0.00 0.00 77 1013.5
20260905124120 29 107 0.0 0.0 0.00 0.00 0.00 77 1013.5
20260905123616 28 107 0.0 0.0 0.00 0.00 0.00 78 1013.5